Regional Weather Roundup
Issued by NWS

Home | Current Version | Previous Version | Graphics & Text | Print | Product List | Glossary On
Versions: 1 2 3 4 5 6 7 8 9 10 11 12 13 14 15 16 17 18 19 20 21 22 23 24 25 26 27 28 29 30 31 32 33 34 35 36 37 38 39 40 41 42 43 44 45 46 47 48 49 50
045
ASUS43 KDTX 250910
RWRMI
MICHIGAN HOURLY REGIONAL WEATHER ROUNDUP
NATIONAL WEATHER SERVICE DETROIT/PONTIAC MI
500 AM EDT SUN JUN 25 2017

NOTE: "FAIR" INDICATES FEW OR NO CLOUDS BELOW 12,000 FEET WITH NO
SIGNIFICANT WEATHER AND/OR OBSTRUCTION TO VISIBILITY.

MIZ047>049-052>055-059>063-066>070-074>076-081>083-251000-
SOUTHEAST LOWER MICHIGAN

CITY           SKY/WX    TMP DP  RH WIND       PRES   REMARKS
ADRIAN         MOCLDY    55  50  83 SW3       30.01F
ALMA           CLEAR     55  49  82 SW12      29.96S
ANN ARBOR      MOCLDY    50  48  93 SW3       29.98F
BAD AXE        PTCLDY    54  51  89 SW5       29.93S
CARO           PTCLDY    48  47  98 SW5       29.93F
DETROIT CITY   CLEAR     58  49  72 W7        29.97F
DETROIT        PTCLDY    56  49  77 SW7       29.99S
FLINT          CLOUDY    56  49  77 W8        29.97R
GROSSE ILE     CLEAR     57  50  75 SW5       29.98S
HILLSDALE      PTCLDY    55  46  71 SW6       29.99F
HOWELL         CLOUDY    55  48  76 SW5       29.98F

CITY           SKY/WX    TMP DP  RH WIND       PRES   REMARKS
JACKSON        CLOUDY    57  51  80 W12       30.00R
LAMBERTVILLE   CLEAR     57  50  76 SW5       30.00S
LANSING        CLOUDY    58  49  72 W8        29.98F
LAPEER         FAIR      55  48  79 SW5       29.96S
MASON          CLOUDY    56  50  82 CALM      29.98F
MONROE         CLEAR     54  49  84 CALM      29.99S
MT. CLEMENS    CLEAR     58  49  70 SW6       29.94F
PONTIAC        MOCLDY    56  50  80 SW5       29.96F
PORT HOPE        N/A     56  52  86 SW5       29.90F
PORT HURON     CLEAR     52  48  87 CALM      29.96S
TRI CITIES     MOCLDY    56  52  86 SW7       29.94F
MIDLAND        FAIR      54  49  82 SW3       29.92F
TROY           CLEAR     58  46  64 SW6       29.99S
SAGINAW HB     PTCLDY    54  46  76 SW7       29.93F
$$
MIZ043>046-050>051-056>058-064>065-071>073-077>080-251000-
SOUTHWEST LOWER MICHIGAN

CITY           SKY/WX    TMP DP  RH WIND       PRES   REMARKS
BATTLE CREEK   CLOUDY    56  52  86 W9        30.00F
BENTON HARBOR  CLEAR     59  46  62 W15       30.02R
BIG RAPIDS     MOCLDY    53  48  83 W7        29.94S
COLDWATER      CLOUDY    57  49  74 W5        30.00F
FREMONT        FAIR      53  49  86 W8        29.96S
HOLLAND        PTCLDY    58  48  69 W12G20    30.00S
GRAND RAPIDS   PTCLDY    56  50  80 W12       29.98S
IONIA          FAIR      55  49  81 SW9       29.97S
KALAMAZOO      CLOUDY    56  51  84 SW3       30.00F
LUDINGTON      CLOUDY    56  51  82 W8        29.95S
MARSHALL       DRIZZLE   57  53  86 SW3       29.99S
MOUNT PLEASANT CLEAR     55  49  80 W7        29.93F
MUSKEGON       CLEAR     57  48  72 W14       29.98S
SOUTH HAVEN    PTCLDY    60  50  69 W10G16    30.01S
$$
MIZ016>042-251000-
NORTHERN LOWER MICHIGAN

CITY           SKY/WX    TMP DP  RH WIND       PRES   REMARKS
ALPENA         PTCLDY    54  54 100 SW3       29.89F
BEAVER ISLAND  MOCLDY    50  50 100 CALM      29.90S
BELLAIRE       CLOUDY    55  52  89 CALM      29.91R
CADILLAC       LGT RAIN  50  49  95 W5        29.93S
CHARLEVOIX     CLOUDY    56  56 100 SW7       29.92S
FRANKFORT      PTCLDY    56  50  81 W6        29.92S
GAYLORD        CLOUDY    54  51  90 SW6       29.89F
GRAYLING       CLOUDY    52  52  97 CALM      29.91F
HARBOR SPRINGS MOCLDY    56  56  99 W6        29.89F
HOUGHTON LAKE  MOCLDY    55  51  86 W12       29.92F
MANISTEE       CLOUDY    52  51  97 S3        29.94R
OSCODA         PTCLDY    52  51  95 SW5       29.89F
PELLSTON       MOCLDY    54  52  93 W3        29.89S
ROGERS CITY    CLOUDY    55  54  95 CALM      29.89F
TRAVERSE CITY  CLOUDY    55  50  83 SW6       29.90F
$$
MIZ007>008-015-251000-
EASTERN UPPER MICHIGAN

CITY           SKY/WX    TMP DP  RH WIND       PRES   REMARKS
KINROSS        LGT RAIN  51  50  96 NW5       29.89F
MACKINAC ISLAN CLOUDY    51  51 100 W5        29.88S
NEWBERRY       CLOUDY    50  49  97 NW5       29.89F
S. S. MARIE    LGT RAIN  52  50  93 W7        29.89S
MUNISING         N/A     53  52  96 N3        29.91S
$$
MIZ004>006-011>014-085-251000-
CENTRAL UPPER MICHIGAN

CITY           SKY/WX    TMP DP  RH WIND       PRES   REMARKS
MANISTIQUE     CLOUDY    52  49  90 N3        29.89S
ESCANABA       CLOUDY    53 N/A N/A NW3       29.91S
MENOMINEE      LGT RAIN  53  51  93 CALM      29.92F
SAWYER-GWINN   CLOUDY    50  49  96 CALM      29.92S
$$
MIZ001>003-009>011-084-251000-
WESTERN UPPER MICHIGAN

CITY           SKY/WX    TMP DP  RH WIND       PRES   REMARKS
IRON MOUNTAIN  CLOUDY    52  49  89 NW5       29.91S
HOUGHTON       FOG       50  48  93 NW10      29.92S VSB 1/2
COPPER HARBOR    N/A     50  50 100 N8        29.92S
IRONWOOD       FOG       52  52 100 NW5       29.97S VSB 3/4
$$

ABBREVIATIONS USED IN REMARKS
   TC - TEMPERATURE IN CELSIUS
  WCI - WIND CHILL INDEX
   HX - HEAT INDEX
  VSB - VISIBILITY





USA.gov is the U.S. government's official web portal to all federal, state and local government web resources and services.